Ambler, AK

11:40 PM AKDT on September 23, 2017 (GMT -0800)
Ambler

Weather History for PAFM - April, 2013

Change the Weather History Date:

Saturday, April 20, 2013

  Actual Average Record
Temperature  
Mean Temperature 17 °F -  
Max Temperature 26 °F 28 °F 48 °F (2016)
Min Temperature 8 °F 15 °F -23 °F (1984)
Degree Days  
Heating Degree Days 48    
Moisture  
Dew Point 7 °F    
Average Humidity 65    
Maximum Humidity 85    
Minimum Humidity 50    
Precipitation  
Precipitation 0.00 in - - ()
Sea Level Pressure  
Sea Level Pressure 30.41 in    
Wind  
Wind Speed 3 mph (SE)    
Max Wind Speed 8 mph    
Max Gust Speed -    
Visibility 10 miles    
Events      
Averages and records for this station are not official NWS values.
T = Trace of Precipitation, MM = Missing Value Source: NWS Daily Summary

Daily Weather History Graph

Daily Weather History Graph

Search for Another Location

Airport or City:

Trip Planner

Search our weather history database for the weather conditions in past years. The results will help you decide how hot, cold, wet, or windy it might be!

Date:

Astronomy

Apr. 20, 2013 Rise Set
Actual Time 6:22 AM AKDT 10:40 PM AKDT
Civil Twilight 5:10 AM AKDT 11:53 PM AKDT
Nautical Twilight 3:02 AM AKDT 1:57 AM AKDT
Astronomical Twilight Sun does not set Sun does not set
Moon 3:25 PM AKDT (4/20) 5:36 AM AKDT (4/20)
Length of Visible Light 18h 42m
Length of Day
16h 18m
Waxing Gibbous, 72% of the Moon is Illuminated
Apr 20
Waxing Gibbous
Apr 25
Full
May 2
Last Quarter
May 9
New
May 17
First Quarter

Hourly Weather History & Observations

Time (AKDT) Temp. Windchill Dew Point Humidity Pressure Visibility Wind Dir Wind Speed Gust Speed Precip Events Conditions
12:16 AM 15.8 °F - 5.0 °F 62% 30.45 in 10.0 mi Calm Calm - N/A   Clear
12:36 AM 15.8 °F - 5.0 °F 62% 30.45 in 10.0 mi Calm Calm - N/A   Clear
12:56 AM 14.0 °F - 3.2 °F 62% 30.44 in 10.0 mi Calm Calm - N/A   Clear
1:16 AM 15.8 °F - 3.2 °F 58% 30.44 in 10.0 mi Calm Calm - N/A   Clear
1:36 AM 15.8 °F 10.2 °F 3.2 °F 58% 30.44 in 10.0 mi NE 3.5 mph - N/A   Clear
1:56 AM 15.8 °F 8.6 °F 6.8 °F 68% 30.44 in 10.0 mi NE 4.6 mph - N/A   Clear
2:16 AM 15.8 °F 10.2 °F 5.0 °F 62% 30.44 in 10.0 mi NE 3.5 mph - N/A   Clear
2:36 AM 15.8 °F 8.6 °F 5.0 °F 62% 30.44 in 10.0 mi NE 4.6 mph - N/A   Clear
2:56 AM 14.0 °F 5.1 °F 5.0 °F 67% 30.44 in 10.0 mi NNE 5.8 mph - N/A   Clear
3:16 AM 15.8 °F 7.2 °F 6.8 °F 68% 30.44 in 10.0 mi NNE 5.8 mph - N/A   Clear
3:36 AM 15.8 °F 8.6 °F 6.8 °F 68% 30.43 in 10.0 mi NE 4.6 mph - N/A   Clear
3:56 AM 15.8 °F 8.6 °F 6.8 °F 68% 30.43 in 10.0 mi NE 4.6 mph - N/A   Clear
4:16 AM 15.8 °F 8.6 °F 6.8 °F 68% 30.42 in 10.0 mi ENE 4.6 mph - N/A   Clear
4:36 AM 12.2 °F 2.9 °F 5.0 °F 73% 30.42 in 10.0 mi NE 5.8 mph - N/A   Clear
4:56 AM 12.2 °F 4.3 °F 5.0 °F 73% 30.42 in 10.0 mi ENE 4.6 mph - N/A   Clear
5:16 AM 12.2 °F 6.1 °F 3.2 °F 67% 30.42 in 10.0 mi ENE 3.5 mph - N/A   Clear
5:36 AM 10.4 °F - 5.0 °F 79% 30.41 in 10.0 mi Calm Calm - N/A   Clear
5:56 AM 10.4 °F 4.0 °F 3.2 °F 73% 30.41 in 10.0 mi ENE 3.5 mph - N/A   Clear
6:16 AM 10.4 °F 4.0 °F 3.2 °F 73% 30.41 in 10.0 mi NE 3.5 mph - N/A   Clear
6:36 AM 10.4 °F - 5.0 °F 79% 30.41 in 10.0 mi Calm Calm - N/A   Clear
6:56 AM 10.4 °F 2.2 °F 6.8 °F 85% 30.40 in 10.0 mi NNE 4.6 mph - N/A   Clear
7:16 AM 12.2 °F - 6.8 °F 79% 30.41 in 10.0 mi Calm Calm - N/A   Clear
7:36 AM 12.2 °F 6.1 °F 6.8 °F 79% 30.41 in 10.0 mi NNE 3.5 mph - N/A   Clear
7:56 AM 14.0 °F 8.2 °F 6.8 °F 73% 30.41 in 10.0 mi NNE 3.5 mph - N/A   Clear
8:16 AM 14.0 °F - 6.8 °F 73% 30.41 in 10.0 mi Calm Calm - N/A   Clear
8:36 AM 15.8 °F - 6.8 °F 68% 30.41 in 10.0 mi Calm Calm - N/A   Clear
8:56 AM 15.8 °F - 6.8 °F 68% 30.41 in 10.0 mi Calm Calm - N/A   Clear
9:16 AM 15.8 °F - 6.8 °F 68% 30.41 in 10.0 mi Calm Calm - N/A   Clear
9:36 AM 15.8 °F - 5.0 °F 62% 30.41 in 10.0 mi Calm Calm - N/A   Clear
9:56 AM 15.8 °F - 5.0 °F 62% 30.41 in 10.0 mi Calm Calm - N/A   Clear
10:16 AM 15.8 °F - 6.8 °F 68% 30.41 in 10.0 mi Calm Calm - N/A   Clear
10:36 AM 17.6 °F 12.3 °F 6.8 °F 63% 30.41 in 10.0 mi South 3.5 mph - N/A   Clear
10:56 AM 17.6 °F 12.3 °F 6.8 °F 63% 30.41 in 10.0 mi South 3.5 mph - N/A   Clear
11:16 AM 17.6 °F 12.3 °F 6.8 °F 63% 30.41 in 10.0 mi South 3.5 mph - N/A   Clear
11:36 AM 19.4 °F 12.8 °F 6.8 °F 58% 30.41 in 10.0 mi South 4.6 mph - N/A   Clear
11:56 AM 19.4 °F 12.8 °F 6.8 °F 58% 30.41 in 10.0 mi South 4.6 mph - N/A   Clear
12:16 PM 19.4 °F 12.8 °F 8.6 °F 63% 30.41 in 10.0 mi South 4.6 mph - N/A   Clear
12:36 PM 19.4 °F 11.5 °F 6.8 °F 58% 30.41 in 10.0 mi South 5.8 mph - N/A   Clear
12:56 PM 21.2 °F 13.6 °F 8.6 °F 58% 30.41 in 10.0 mi South 5.8 mph - N/A   Clear
1:16 PM 21.2 °F 13.6 °F 8.6 °F 58% 30.41 in 10.0 mi South 5.8 mph - N/A   Clear
1:36 PM 21.2 °F 13.6 °F 8.6 °F 58% 30.42 in 10.0 mi South 5.8 mph - N/A   Clear
1:56 PM 21.2 °F 13.6 °F 8.6 °F 58% 30.41 in 10.0 mi South 5.8 mph - N/A   Clear
2:16 PM 23.0 °F 15.8 °F 8.6 °F 54% 30.41 in 10.0 mi South 5.8 mph - N/A   Clear
2:36 PM 24.8 °F 19.1 °F 10.4 °F 54% 30.41 in 10.0 mi South 4.6 mph - N/A   Clear
2:56 PM 24.8 °F 16.9 °F 10.4 °F 54% 30.41 in 10.0 mi SSE 6.9 mph - N/A   Clear
3:16 PM 24.8 °F 17.9 °F 12.2 °F 59% 30.41 in 10.0 mi South 5.8 mph - N/A   Clear
3:36 PM 26.6 °F 21.2 °F 10.4 °F 51% 30.41 in 10.0 mi SSE 4.6 mph - N/A   Clear
3:56 PM 26.6 °F 20.0 °F 10.4 °F 51% 30.41 in 10.0 mi SSE 5.8 mph - N/A   Clear
4:16 PM 24.8 °F 19.1 °F 8.6 °F 50% 30.41 in 10.0 mi South 4.6 mph - N/A   Clear
4:36 PM 24.8 °F 19.1 °F 10.4 °F 54% 30.41 in 10.0 mi South 4.6 mph - N/A   Clear
4:56 PM 24.8 °F 17.9 °F 10.4 °F 54% 30.41 in 10.0 mi SSE 5.8 mph - N/A   Clear
5:16 PM 26.6 °F 19.1 °F 10.4 °F 51% 30.41 in 10.0 mi SSE 6.9 mph - N/A   Clear
5:36 PM 24.8 °F 17.9 °F 10.4 °F 54% 30.40 in 10.0 mi SSE 5.8 mph - N/A   Clear
5:56 PM 24.8 °F 16.1 °F 10.4 °F 54% 30.40 in 10.0 mi SSE 8.1 mph - N/A   Clear
6:16 PM 24.8 °F 16.9 °F 10.4 °F 54% 30.40 in 10.0 mi SSE 6.9 mph - N/A   Clear
6:36 PM 24.8 °F 17.9 °F 10.4 °F 54% 30.40 in 10.0 mi SSE 5.8 mph - N/A   Clear
6:56 PM 23.0 °F 17.0 °F 10.4 °F 59% 30.40 in 10.0 mi SSE 4.6 mph - N/A   Clear
7:16 PM 21.2 °F 12.6 °F 10.4 °F 63% 30.40 in 10.0 mi South 6.9 mph - N/A   Clear
7:36 PM 21.2 °F 14.9 °F 8.6 °F 58% 30.40 in 10.0 mi SSE 4.6 mph - N/A   Clear
7:56 PM 21.2 °F 13.6 °F 8.6 °F 58% 30.40 in 10.0 mi South 5.8 mph - N/A   Clear
8:16 PM 19.4 °F 11.5 °F 8.6 °F 63% 30.40 in 10.0 mi SSE 5.8 mph - N/A   Clear
8:36 PM 19.4 °F 11.5 °F 8.6 °F 63% 30.40 in 10.0 mi SSE 5.8 mph - N/A   Clear
8:56 PM 17.6 °F 10.7 °F 8.6 °F 68% 30.40 in 10.0 mi South 4.6 mph - N/A   Clear
9:16 PM 17.6 °F 9.3 °F 8.6 °F 68% 30.40 in 10.0 mi South 5.8 mph - N/A   Clear
9:36 PM 15.8 °F 8.6 °F 8.6 °F 73% 30.40 in 10.0 mi SSE 4.6 mph - N/A   Clear
9:56 PM 15.8 °F 8.6 °F 6.8 °F 68% 30.41 in 10.0 mi SE 4.6 mph - N/A   Clear
10:16 PM 14.0 °F - 6.8 °F 73% 30.41 in 10.0 mi Calm Calm - N/A   Clear
10:36 PM 12.2 °F - 6.8 °F 79% 30.41 in 10.0 mi Calm Calm - N/A   Clear
10:56 PM 10.4 °F 4.0 °F 6.8 °F 85% 30.42 in 10.0 mi ESE 3.5 mph - N/A   Clear
11:16 PM 10.4 °F 4.0 °F 5.0 °F 79% 30.42 in 10.0 mi East 3.5 mph - N/A   Clear
11:36 PM 8.6 °F - 3.2 °F 79% 30.42 in 10.0 mi Calm Calm - N/A   Clear
11:56 PM 8.6 °F 2.0 °F 5.0 °F 85% 30.42 in 10.0 mi ESE 3.5 mph - N/A   Clear